{"data":{"norad_id":55812,"intl_designator":"2023-029S","name":"ONEWEB-0649","alt_names":[],"object_type":"PAYLOAD","status":"ACTIVE","operator":null,"country":"UK","launch_date":"2023-03-09","launch_site_code":"AFETR","launch_vehicle":null,"mission":null,"orbit_class":"UNKNOWN","rcs_meters":null,"size_class":null,"mass_kg":null,"dimensions":null,"purposes":["comms"],"wikipedia_slug":null,"has_3d_model":false,"image_url":null,"decayed_at":null,"tle_current":{"epoch":"2026-09-19T00:28:02.888832Z","epoch_age_seconds":146138,"freshness":"FRESH","line1":"1 55812U 23029S   26262.01947788  .00000068  00000+0  13830-3 0  9990","line2":"2 55812  87.9110 286.2764 0001941  84.0252 276.1102 13.19723385171303","mean_motion":13.19723385,"eccentricity":0.0001941,"inclination_deg":87.911,"raan_deg":286.2764,"arg_perigee_deg":84.0252,"mean_anomaly_deg":276.1102,"bstar":0.0001383,"rev_number":17130,"period_min":109.11377462634,"perigee_km":1184.3085671869,"apogee_km":1187.2448784941,"semimajor_km":7563.9137228405,"source":"CELESTRAK","updated_at":"2026-09-20T09:00:44.762257Z"}}}